Terminal Aerodrome Forecast
Issued by NWS Des Moines, IA

Home | Current Version | Previous Version | Text Only | Print | Product List | Glossary On
Versions: 1 2 3 4 5 6 7 8 9 10 11 12 13 14 15 16 17 18 19 20 21 22 23 24 25 26 27 28 29 30 31 32 33 34 35 36 37 38 39
000
FTUS43 KDMX 290747 AAA
TAFDSM
TAF AMD
KDSM 290747Z 2908/3006 05007KT 6SM -SHRA BR OVC045
     FM291100 19009KT P6SM BKN035
     FM291900 19010KT P6SM VCSH BKN040
     FM300200 24006KT P6SM BKN060=

USA.gov is the U.S. government's official web portal to all federal, state and local government web resources and services.